Volver al catálogo

SITRO-AIS-41

ActivoNavegaciónPO
NORAD 61760·PAYLOAD·🇷🇺 Russia
Este nombre de satélite aún no ha sido confirmado por fuentes oficiales.

Lanzado Nov 4, 2024 desde Vostochny Cosmodrome

Loading…

Próximos Pases (próximas 24 horas)

TLE

ActualizadoSource: Space-Track

Época: Sep 14, 2026, 15:07 UTC

1 61760U 24199AB  26257.63042179  .00234381  21936-4  79805-3 0  9997
2 61760  97.2671 141.2153 0002777 146.9764 213.1683 15.89806726151868

Sigue SITRO-AIS-41 en tiempo real con AllMySat

Download on the App Store